Voltar ao catálogo

COSMOS 732

AtivoMilitarLEO
NORAD 7820·PAYLOAD·🇷🇺 Russia

Lançado May 28, 1975 de Plesetsk Cosmodrome

Loading…

Próximas Passagens (próximas 24 horas)

TLE

AtualizadoSource: Space-Track

Época: Sep 14, 2026, 09:53 UTC

1 07820U 75045A   26257.41247853 -.00000022  00000-0 -35662-4 0  9996
2 07820  74.0151 234.1517 0042060  48.4209  25.4768 12.56725746353489

Acompanhe COSMOS 732 em tempo real com AllMySat

Download on the App Store